Regional Weather Roundup
Issued by NWS

Home | Current Version | Previous Version | Text Only | Print | Product List | Glossary On
Versions: 1 2 3 4 5 6 7 8 9 10 11 12 13 14 15 16 17 18 19 20 21 22 23 24 25 26 27 28 29 30 31 32 33 34 35 36 37 38 39 40 41 42 43 44 45 46 47 48 49 50
000
ASUS46 KPQR 230910
RWROR

OREGON REGIONAL WEATHER ROUNDUP
NATIONAL WEATHER SERVICE PORTLAND OR
100 AM PST MON JAN 23 2017

NOTE: "FAIR" INDICATES FEW OR NO CLOUDS BELOW 12,000 FEET WITH
NO SIGNIFICANT WEATHER AND/OR OBSTRUCTIONS TO VISIBILITY.

ORZ001>013-231000-
NORTHWEST OREGON


CITY           SKY/WX    TMP DP  RH WIND       PRES   REMARKS
ASTORIA        PTCLDY    40  32  73 E6        29.56R
NEWPORT        PTCLDY    41  36  81 SE8       29.58S
PORTLAND       MOCLDY    38  34  85 E7        29.61R WCI  33
VANCOUVER WA   CLOUDY    40  34  79 E3        29.60S
SCAPPOOSE      CLOUDY    36  35  96 N5        29.61R WCI  32
HILLSBORO      CLOUDY    37  35  92 CALM      29.59S
AURORA         CLOUDY    39  35  86 SE3       29.61R
MCMINNVILLE    PTCLDY    38  36  92 CALM      29.60S
SALEM          PTCLDY    39  33  79 S3        29.58S
CORVALLIS        N/A     36  32  87 CALM      29.59F
EUGENE         PTCLDY    35  33  92 SE6       29.59S WCI  30
$$

ORZ021-028-231000-
SOUTHWEST OREGON


CITY           SKY/WX    TMP DP  RH WIND       PRES   REMARKS
NORTH BEND     PTCLDY    41  37  87 SE14      29.58S
ROSEBURG       PTCLDY    34  32  92 CALM      29.60S
SEXTON SUMMIT  FOG       27  26  96 S12       29.50F VSB 1/2 WCI  17
MEDFORD        CLEAR     33  32  96 CALM      29.61R
$$

ORZ014>016-041-231000-
COLUMBIA GORGE


CITY           SKY/WX    TMP DP  RH WIND       PRES   REMARKS
TROUTDALE      CLOUDY    41  34  76 SE9       29.61R
THE DALLES     FOG       33  32  96 CALM      29.67S VSB 1/4
$$

ORZ029>031-041-044-049-050-061>064-502-503-505>511-231000-
EASTERN OREGON


CITY           SKY/WX    TMP DP  RH WIND       PRES   REMARKS
REDMOND        CLOUDY    32  19  58 S6        29.55S WCI  26
BEND           CLOUDY    30  23  74 CALM      29.55S
PRINEVILLE     CLOUDY    32  19  59 SE12      29.55S WCI  23
KLAMATH FALLS  CLOUDY    26  25  96 MISG      29.54S
LAKEVIEW       CLOUDY    27  25  93 S5        29.54F WCI  21
HERMISTON      FOG       20  20 100 SW8       29.65R VSB 1/4 WCI  10
PENDLETON      MOCLDY    31  26  82 E5        29.62R WCI  26
JOHN DAY       CLOUDY    27  20  76 SE6       29.59S WCI  20
MEACHAM        CLEAR     24  19  81 CALM      29.59R
LA GRANDE      PTCLDY    30  25  80 E6        29.63R WCI  24
BAKER CITY     CLOUDY    21  18  88 S5        29.63S WCI  15
BURNS          CLOUDY    17  14  88 W5        29.57F WCI  10
ROME             N/A     28  24  85 SE3       29.56F
ONTARIO        CLOUDY    26  23  88 W3        29.66S
$$



USA.gov is the U.S. government's official web portal to all federal, state and local government web resources and services.